owner,sensor,date,latitude,longitude,air_temperature,qcFlag 
COMPS,ioos:station:USF.COMPS:C12:1,2017-05-01T00:05:00Z,27.4980,-83.7220,23.35,1111122 
COMPS,ioos:station:USF.COMPS:C12:1,2017-05-01T00:35:00Z,27.4980,-83.7220,23.31,1111122 
COMPS,ioos:station:USF.COMPS:C12:1,2017-05-01T01:05:00Z,27.4980,-83.7220,23.18,1111122 
COMPS,ioos:station:USF.COMPS:C12:1,2017-05-01T01:35:00Z,27.4980,-83.7220,23.11,1111122 
COMPS,ioos:station:USF.COMPS:C12:1,2017-05-01T02:05:00Z,27.4980,-83.7220,23.01,1111122 
COMPS,ioos:station:USF.COMPS:C12:1,2017-05-01T02:35:00Z,27.4980,-83.7220,22.99,1111122 
COMPS,ioos:station:USF.COMPS:C12:1,2017-05-01T03:05:00Z,27.4980,-83.7220,23.03,1111122 
COMPS,ioos:station:USF.COMPS:C12:1,2017-05-01T03:35:00Z,27.4980,-83.7220,23.07,1111122 
COMPS,ioos:station:USF.COMPS:C12:1,2017-05-01T04:05:00Z,27.4980,-83.7220,23.07,1111122 
COMPS,ioos:station:USF.COMPS:C12:1,2017-05-01T04:35:00Z,27.4980,-83.7220,23.07,1111122 
COMPS,ioos:station:USF.COMPS:C12:1,2017-05-01T05:05:00Z,27.4980,-83.7220,23.05,1111122 
COMPS,ioos:station:USF.COMPS:C12:1,2017-05-01T05:35:00Z,27.4980,-83.7220,23.0,1111122 
COMPS,ioos:station:USF.COMPS:C12:1,2017-05-01T06:05:00Z,27.4980,-83.7220,22.91,1111122 
COMPS,ioos:station:USF.COMPS:C12:1,2017-05-01T06:35:00Z,27.4980,-83.7220,22.56,1111122 
COMPS,ioos:station:USF.COMPS:C12:1,2017-05-01T07:05:00Z,27.4980,-83.7220,22.49,1111122 
COMPS,ioos:station:USF.COMPS:C12:1,2017-05-01T07:35:00Z,27.4980,-83.7220,22.52,1111122 
COMPS,ioos:station:USF.COMPS:C12:1,2017-05-01T08:05:00Z,27.4980,-83.7220,22.55,1111122 
COMPS,ioos:station:USF.COMPS:C12:1,2017-05-01T08:35:00Z,27.4980,-83.7220,22.5,1111122 
COMPS,ioos:station:USF.COMPS:C12:1,2017-05-01T09:05:00Z,27.4980,-83.7220,22.51,1111122 
COMPS,ioos:station:USF.COMPS:C12:1,2017-05-01T09:35:00Z,27.4980,-83.7220,22.44,1111122 
COMPS,ioos:station:USF.COMPS:C12:1,2017-05-01T10:05:00Z,27.4980,-83.7220,22.38,1111122 
COMPS,ioos:station:USF.COMPS:C12:1,2017-05-01T10:35:00Z,27.4980,-83.7220,22.33,1111122 
COMPS,ioos:station:USF.COMPS:C12:1,2017-05-01T11:05:00Z,27.4980,-83.7220,22.31,1111122 
COMPS,ioos:station:USF.COMPS:C12:1,2017-05-01T11:35:00Z,27.4980,-83.7220,22.37,1111122 
COMPS,ioos:station:USF.COMPS:C12:1,2017-05-01T12:05:00Z,27.4980,-83.7220,22.43,1111122 
COMPS,ioos:station:USF.COMPS:C12:1,2017-05-01T12:35:00Z,27.4980,-83.7220,22.38,1111122 
COMPS,ioos:station:USF.COMPS:C12:1,2017-05-01T13:05:00Z,27.4980,-83.7220,22.4,1111122 
COMPS,ioos:station:USF.COMPS:C12:1,2017-05-01T13:35:00Z,27.4980,-83.7220,22.13,1111122 
COMPS,ioos:station:USF.COMPS:C12:1,2017-05-01T14:05:00Z,27.4980,-83.7220,22.0,1111122 
COMPS,ioos:station:USF.COMPS:C12:1,2017-05-01T14:35:00Z,27.4980,-83.7220,21.99,1111122 
COMPS,ioos:station:USF.COMPS:C12:1,2017-05-01T15:05:00Z,27.4980,-83.7220,22.0,1111122 
COMPS,ioos:station:USF.COMPS:C12:1,2017-05-01T15:35:00Z,27.4980,-83.7220,22.1,1111122 
COMPS,ioos:station:USF.COMPS:C12:1,2017-05-01T16:05:00Z,27.4980,-83.7220,22.29,1111122 
COMPS,ioos:station:USF.COMPS:C12:1,2017-05-01T16:35:00Z,27.4980,-83.7220,22.39,1111122 
COMPS,ioos:station:USF.COMPS:C12:1,2017-05-01T17:05:00Z,27.4980,-83.7220,22.46,1111122 
COMPS,ioos:station:USF.COMPS:C12:1,2017-05-01T17:35:00Z,27.4980,-83.7220,22.49,1111122 
COMPS,ioos:station:USF.COMPS:C12:1,2017-05-01T18:05:00Z,27.4980,-83.7220,22.44,1111122 
COMPS,ioos:station:USF.COMPS:C12:1,2017-05-01T18:35:00Z,27.4980,-83.7220,21.07,1111122 
COMPS,ioos:station:USF.COMPS:C12:1,2017-05-01T19:05:00Z,27.4980,-83.7220,22.23,1111122 
COMPS,ioos:station:USF.COMPS:C12:1,2017-05-01T19:35:00Z,27.4980,-83.7220,21.78,1111122 
COMPS,ioos:station:USF.COMPS:C12:1,2017-05-01T20:05:00Z,27.4980,-83.7220,21.93,1111122 
COMPS,ioos:station:USF.COMPS:C12:1,2017-05-01T20:35:00Z,27.4980,-83.7220,23.18,1111122 
COMPS,ioos:station:USF.COMPS:C12:1,2017-05-01T21:05:00Z,27.4980,-83.7220,22.27,1111122 
COMPS,ioos:station:USF.COMPS:C12:1,2017-05-01T21:35:00Z,27.4980,-83.7220,22.12,1111122 
COMPS,ioos:station:USF.COMPS:C12:1,2017-05-01T22:05:00Z,27.4980,-83.7220,22.26,1111122 
COMPS,ioos:station:USF.COMPS:C12:1,2017-05-01T22:35:00Z,27.4980,-83.7220,22.44,1111122 
COMPS,ioos:station:USF.COMPS:C12:1,2017-05-01T23:05:00Z,27.4980,-83.7220,22.4,1111122 
COMPS,ioos:station:USF.COMPS:C12:1,2017-05-01T23:35:00Z,27.4980,-83.7220,22.37,1111122 
COMPS,ioos:station:USF.COMPS:C12:1,2017-05-02T00:05:00Z,27.4980,-83.7220,22.25,1111122 
COMPS,ioos:station:USF.COMPS:C12:1,2017-05-02T00:35:00Z,27.4980,-83.7220,22.24,1111122 
COMPS,ioos:station:USF.COMPS:C12:1,2017-05-02T01:05:00Z,27.4980,-83.7220,22.03,1111122 
COMPS,ioos:station:USF.COMPS:C12:1,2017-05-02T01:35:00Z,27.4980,-83.7220,22.07,1111122 
COMPS,ioos:station:USF.COMPS:C12:1,2017-05-02T02:05:00Z,27.4980,-83.7220,22.23,1111122 
COMPS,ioos:station:USF.COMPS:C12:1,2017-05-02T02:35:00Z,27.4980,-83.7220,22.33,1111122 
COMPS,ioos:station:USF.COMPS:C12:1,2017-05-02T03:05:00Z,27.4980,-83.7220,22.39,1111122 
COMPS,ioos:station:USF.COMPS:C12:1,2017-05-02T03:35:00Z,27.4980,-83.7220,22.39,1111122 
COMPS,ioos:station:USF.COMPS:C12:1,2017-05-02T04:05:00Z,27.4980,-83.7220,22.33,1111122 
COMPS,ioos:station:USF.COMPS:C12:1,2017-05-02T04:35:00Z,27.4980,-83.7220,22.27,1111122 
COMPS,ioos:station:USF.COMPS:C12:1,2017-05-02T05:05:00Z,27.4980,-83.7220,22.25,1111122 
COMPS,ioos:station:USF.COMPS:C12:1,2017-05-02T05:35:00Z,27.4980,-83.7220,22.2,1111122 
COMPS,ioos:station:USF.COMPS:C12:1,2017-05-02T06:05:00Z,27.4980,-83.7220,22.11,1111122 
COMPS,ioos:station:USF.COMPS:C12:1,2017-05-02T06:35:00Z,27.4980,-83.7220,22.08,1111122 
COMPS,ioos:station:USF.COMPS:C12:1,2017-05-02T07:05:00Z,27.4980,-83.7220,21.99,1111122 
COMPS,ioos:station:USF.COMPS:C12:1,2017-05-02T07:35:00Z,27.4980,-83.7220,21.96,1111122 
COMPS,ioos:station:USF.COMPS:C12:1,2017-05-02T08:05:00Z,27.4980,-83.7220,21.99,1111122 
COMPS,ioos:station:USF.COMPS:C12:1,2017-05-02T08:35:00Z,27.4980,-83.7220,21.96,1111122 
COMPS,ioos:station:USF.COMPS:C12:1,2017-05-02T09:05:00Z,27.4980,-83.7220,21.88,1111122 
COMPS,ioos:station:USF.COMPS:C12:1,2017-05-02T09:35:00Z,27.4980,-83.7220,21.84,1111122 
COMPS,ioos:station:USF.COMPS:C12:1,2017-05-02T10:05:00Z,27.4980,-83.7220,21.83,1111122 
COMPS,ioos:station:USF.COMPS:C12:1,2017-05-02T10:35:00Z,27.4980,-83.7220,21.85,1111122 
COMPS,ioos:station:USF.COMPS:C12:1,2017-05-02T11:05:00Z,27.4980,-83.7220,21.69,1111122 
COMPS,ioos:station:USF.COMPS:C12:1,2017-05-02T11:35:00Z,27.4980,-83.7220,21.7,1111122 
COMPS,ioos:station:USF.COMPS:C12:1,2017-05-02T12:05:00Z,27.4980,-83.7220,21.54,1111122 
COMPS,ioos:station:USF.COMPS:C12:1,2017-05-02T12:35:00Z,27.4980,-83.7220,21.3,1111122 
COMPS,ioos:station:USF.COMPS:C12:1,2017-05-02T13:05:00Z,27.4980,-83.7220,21.31,1111122 
COMPS,ioos:station:USF.COMPS:C12:1,2017-05-02T13:35:00Z,27.4980,-83.7220,21.15,1111122 
COMPS,ioos:station:USF.COMPS:C12:1,2017-05-02T14:05:00Z,27.4980,-83.7220,21.43,1111122 
COMPS,ioos:station:USF.COMPS:C12:1,2017-05-02T14:35:00Z,27.4980,-83.7220,21.55,1111122 
COMPS,ioos:station:USF.COMPS:C12:1,2017-05-02T15:05:00Z,27.4980,-83.7220,21.51,1111122 
COMPS,ioos:station:USF.COMPS:C12:1,2017-05-02T15:35:00Z,27.4980,-83.7220,21.69,1111122 
COMPS,ioos:station:USF.COMPS:C12:1,2017-05-02T16:05:00Z,27.4980,-83.7220,21.85,1111122 
COMPS,ioos:station:USF.COMPS:C12:1,2017-05-02T16:35:00Z,27.4980,-83.7220,21.91,1111122 
COMPS,ioos:station:USF.COMPS:C12:1,2017-05-02T17:05:00Z,27.4980,-83.7220,22.02,1111122 
COMPS,ioos:station:USF.COMPS:C12:1,2017-05-02T17:35:00Z,27.4980,-83.7220,22.12,1111122 
COMPS,ioos:station:USF.COMPS:C12:1,2017-05-02T18:05:00Z,27.4980,-83.7220,22.24,1111122 
COMPS,ioos:station:USF.COMPS:C12:1,2017-05-02T18:35:00Z,27.4980,-83.7220,22.2,1111122 
COMPS,ioos:station:USF.COMPS:C12:1,2017-05-02T19:05:00Z,27.4980,-83.7220,22.62,1111122 
COMPS,ioos:station:USF.COMPS:C12:1,2017-05-02T19:35:00Z,27.4980,-83.7220,22.84,1111122 
COMPS,ioos:station:USF.COMPS:C12:1,2017-05-02T20:05:00Z,27.4980,-83.7220,23.0,1111122 
COMPS,ioos:station:USF.COMPS:C12:1,2017-05-02T20:35:00Z,27.4980,-83.7220,23.05,1111122 
COMPS,ioos:station:USF.COMPS:C12:1,2017-05-02T21:05:00Z,27.4980,-83.7220,23.14,1111122 
COMPS,ioos:station:USF.COMPS:C12:1,2017-05-02T21:35:00Z,27.4980,-83.7220,23.15,1111122 
COMPS,ioos:station:USF.COMPS:C12:1,2017-05-02T22:05:00Z,27.4980,-83.7220,23.18,1111122 
COMPS,ioos:station:USF.COMPS:C12:1,2017-05-02T22:35:00Z,27.4980,-83.7220,23.16,1111122 
COMPS,ioos:station:USF.COMPS:C12:1,2017-05-02T23:05:00Z,27.4980,-83.7220,23.24,1111122 
COMPS,ioos:station:USF.COMPS:C12:1,2017-05-02T23:35:00Z,27.4980,-83.7220,23.24,1111122 
COMPS,ioos:station:USF.COMPS:C12:1,2017-05-03T00:05:00Z,27.4980,-83.7220,23.12,1111122 
COMPS,ioos:station:USF.COMPS:C12:1,2017-05-03T00:35:00Z,27.4980,-83.7220,23.03,1111122 
COMPS,ioos:station:USF.COMPS:C12:1,2017-05-03T01:05:00Z,27.4980,-83.7220,22.94,1111122 
COMPS,ioos:station:USF.COMPS:C12:1,2017-05-03T01:35:00Z,27.4980,-83.7220,22.96,1111122 
COMPS,ioos:station:USF.COMPS:C12:1,2017-05-03T02:05:00Z,27.4980,-83.7220,23.03,1111122 
COMPS,ioos:station:USF.COMPS:C12:1,2017-05-03T02:35:00Z,27.4980,-83.7220,23.03,1111122 
COMPS,ioos:station:USF.COMPS:C12:1,2017-05-03T03:05:00Z,27.4980,-83.7220,22.99,1111122 
COMPS,ioos:station:USF.COMPS:C12:1,2017-05-03T03:35:00Z,27.4980,-83.7220,22.97,1111122 
COMPS,ioos:station:USF.COMPS:C12:1,2017-05-03T04:05:00Z,27.4980,-83.7220,22.93,1111122 
COMPS,ioos:station:USF.COMPS:C12:1,2017-05-03T04:35:00Z,27.4980,-83.7220,22.92,1111122 
COMPS,ioos:station:USF.COMPS:C12:1,2017-05-03T05:05:00Z,27.4980,-83.7220,22.83,1111122 
COMPS,ioos:station:USF.COMPS:C12:1,2017-05-03T05:35:00Z,27.4980,-83.7220,22.82,1111122 
COMPS,ioos:station:USF.COMPS:C12:1,2017-05-03T06:05:00Z,27.4980,-83.7220,22.96,1111122 
COMPS,ioos:station:USF.COMPS:C12:1,2017-05-03T06:35:00Z,27.4980,-83.7220,22.65,1111122 
COMPS,ioos:station:USF.COMPS:C12:1,2017-05-03T07:05:00Z,27.4980,-83.7220,22.55,1111122 
COMPS,ioos:station:USF.COMPS:C12:1,2017-05-03T07:35:00Z,27.4980,-83.7220,22.57,1111122 
COMPS,ioos:station:USF.COMPS:C12:1,2017-05-03T08:05:00Z,27.4980,-83.7220,22.46,1111122 
COMPS,ioos:station:USF.COMPS:C12:1,2017-05-03T08:35:00Z,27.4980,-83.7220,22.43,1111122 
COMPS,ioos:station:USF.COMPS:C12:1,2017-05-03T09:05:00Z,27.4980,-83.7220,22.56,1111122 
COMPS,ioos:station:USF.COMPS:C12:1,2017-05-03T09:35:00Z,27.4980,-83.7220,22.57,1111122 
COMPS,ioos:station:USF.COMPS:C12:1,2017-05-03T10:05:00Z,27.4980,-83.7220,22.64,1111122 
COMPS,ioos:station:USF.COMPS:C12:1,2017-05-03T10:35:00Z,27.4980,-83.7220,22.63,1111122 
COMPS,ioos:station:USF.COMPS:C12:1,2017-05-03T11:05:00Z,27.4980,-83.7220,22.58,1111122 
COMPS,ioos:station:USF.COMPS:C12:1,2017-05-03T11:35:00Z,27.4980,-83.7220,22.6,1111122 
COMPS,ioos:station:USF.COMPS:C12:1,2017-05-03T12:05:00Z,27.4980,-83.7220,22.66,1111122 
COMPS,ioos:station:USF.COMPS:C12:1,2017-05-03T12:35:00Z,27.4980,-83.7220,22.74,1111122 
COMPS,ioos:station:USF.COMPS:C12:1,2017-05-03T13:05:00Z,27.4980,-83.7220,22.76,1111122 
COMPS,ioos:station:USF.COMPS:C12:1,2017-05-03T13:35:00Z,27.4980,-83.7220,22.69,1111122 
COMPS,ioos:station:USF.COMPS:C12:1,2017-05-03T14:05:00Z,27.4980,-83.7220,22.75,1111122 
COMPS,ioos:station:USF.COMPS:C12:1,2017-05-03T14:35:00Z,27.4980,-83.7220,22.73,1111122 
COMPS,ioos:station:USF.COMPS:C12:1,2017-05-03T15:05:00Z,27.4980,-83.7220,22.63,1111122 
COMPS,ioos:station:USF.COMPS:C12:1,2017-05-03T15:35:00Z,27.4980,-83.7220,22.48,1111122 
COMPS,ioos:station:USF.COMPS:C12:1,2017-05-03T16:05:00Z,27.4980,-83.7220,22.61,1111122 
COMPS,ioos:station:USF.COMPS:C12:1,2017-05-03T16:35:00Z,27.4980,-83.7220,22.52,1111122 
COMPS,ioos:station:USF.COMPS:C12:1,2017-05-03T17:05:00Z,27.4980,-83.7220,22.6,1111122 
COMPS,ioos:station:USF.COMPS:C12:1,2017-05-03T17:35:00Z,27.4980,-83.7220,22.48,1111122 
COMPS,ioos:station:USF.COMPS:C12:1,2017-05-03T18:05:00Z,27.4980,-83.7220,22.37,1111122 
COMPS,ioos:station:USF.COMPS:C12:1,2017-05-03T18:35:00Z,27.4980,-83.7220,22.48,1111122 
COMPS,ioos:station:USF.COMPS:C12:1,2017-05-03T19:05:00Z,27.4980,-83.7220,22.54,1111122 
COMPS,ioos:station:USF.COMPS:C12:1,2017-05-03T19:35:00Z,27.4980,-83.7220,22.77,1111122 
COMPS,ioos:station:USF.COMPS:C12:1,2017-05-03T20:05:00Z,27.4980,-83.7220,22.8,1111122 
COMPS,ioos:station:USF.COMPS:C12:1,2017-05-03T20:35:00Z,27.4980,-83.7220,22.78,1111122 
COMPS,ioos:station:USF.COMPS:C12:1,2017-05-03T21:05:00Z,27.4980,-83.7220,22.77,1111122 
COMPS,ioos:station:USF.COMPS:C12:1,2017-05-03T21:35:00Z,27.4980,-83.7220,22.9,1111122 
COMPS,ioos:station:USF.COMPS:C12:1,2017-05-03T22:05:00Z,27.4980,-83.7220,22.95,1111122 
COMPS,ioos:station:USF.COMPS:C12:1,2017-05-03T22:35:00Z,27.4980,-83.7220,22.99,1111122 
COMPS,ioos:station:USF.COMPS:C12:1,2017-05-03T23:05:00Z,27.4980,-83.7220,23.11,1111122 
COMPS,ioos:station:USF.COMPS:C12:1,2017-05-03T23:35:00Z,27.4980,-83.7220,23.13,1111122 
COMPS,ioos:station:USF.COMPS:C12:1,2017-05-04T00:05:00Z,27.4980,-83.7220,22.92,1111122 
COMPS,ioos:station:USF.COMPS:C12:1,2017-05-04T00:35:00Z,27.4980,-83.7220,22.79,1111122 
COMPS,ioos:station:USF.COMPS:C12:1,2017-05-04T01:05:00Z,27.4980,-83.7220,22.58,1111122 
COMPS,ioos:station:USF.COMPS:C12:1,2017-05-04T01:35:00Z,27.4980,-83.7220,22.55,1111122 
COMPS,ioos:station:USF.COMPS:C12:1,2017-05-04T02:05:00Z,27.4980,-83.7220,22.48,1111122 
COMPS,ioos:station:USF.COMPS:C12:1,2017-05-04T02:35:00Z,27.4980,-83.7220,22.45,1111122 
COMPS,ioos:station:USF.COMPS:C12:1,2017-05-04T03:05:00Z,27.4980,-83.7220,22.41,1111122 
COMPS,ioos:station:USF.COMPS:C12:1,2017-05-04T03:35:00Z,27.4980,-83.7220,22.29,1111122 
COMPS,ioos:station:USF.COMPS:C12:1,2017-05-04T04:05:00Z,27.4980,-83.7220,22.21,1111122 
COMPS,ioos:station:USF.COMPS:C12:1,2017-05-04T04:35:00Z,27.4980,-83.7220,22.14,1111122 
COMPS,ioos:station:USF.COMPS:C12:1,2017-05-04T05:05:00Z,27.4980,-83.7220,22.1,1111122 
COMPS,ioos:station:USF.COMPS:C12:1,2017-05-04T05:35:00Z,27.4980,-83.7220,22.06,1111122 
COMPS,ioos:station:USF.COMPS:C12:1,2017-05-04T06:05:00Z,27.4980,-83.7220,22.08,1111122 
COMPS,ioos:station:USF.COMPS:C12:1,2017-05-04T06:35:00Z,27.4980,-83.7220,22.08,1111122 
COMPS,ioos:station:USF.COMPS:C12:1,2017-05-04T07:05:00Z,27.4980,-83.7220,21.96,1111122 
COMPS,ioos:station:USF.COMPS:C12:1,2017-05-04T07:35:00Z,27.4980,-83.7220,21.99,1111122 
COMPS,ioos:station:USF.COMPS:C12:1,2017-05-04T08:05:00Z,27.4980,-83.7220,22.34,1111122 
COMPS,ioos:station:USF.COMPS:C12:1,2017-05-04T08:35:00Z,27.4980,-83.7220,22.37,1111122 
COMPS,ioos:station:USF.COMPS:C12:1,2017-05-04T09:05:00Z,27.4980,-83.7220,22.45,1111122 
COMPS,ioos:station:USF.COMPS:C12:1,2017-05-04T09:35:00Z,27.4980,-83.7220,22.51,1111122 
COMPS,ioos:station:USF.COMPS:C12:1,2017-05-04T10:05:00Z,27.4980,-83.7220,22.44,1111122 
COMPS,ioos:station:USF.COMPS:C12:1,2017-05-04T10:35:00Z,27.4980,-83.7220,22.42,1111122 
COMPS,ioos:station:USF.COMPS:C12:1,2017-05-04T11:05:00Z,27.4980,-83.7220,22.55,1111122 
COMPS,ioos:station:USF.COMPS:C12:1,2017-05-04T11:35:00Z,27.4980,-83.7220,22.86,1111122 
COMPS,ioos:station:USF.COMPS:C12:1,2017-05-04T12:05:00Z,27.4980,-83.7220,23.19,1111122 
COMPS,ioos:station:USF.COMPS:C12:1,2017-05-04T12:35:00Z,27.4980,-83.7220,23.02,1111122 
COMPS,ioos:station:USF.COMPS:C12:1,2017-05-04T13:05:00Z,27.4980,-83.7220,23.04,1111122 
COMPS,ioos:station:USF.COMPS:C12:1,2017-05-04T13:35:00Z,27.4980,-83.7220,22.99,1111122 
COMPS,ioos:station:USF.COMPS:C12:1,2017-05-04T14:05:00Z,27.4980,-83.7220,22.95,1111122 
COMPS,ioos:station:USF.COMPS:C12:1,2017-05-04T14:35:00Z,27.4980,-83.7220,22.97,1111122 
COMPS,ioos:station:USF.COMPS:C12:1,2017-05-04T15:05:00Z,27.4980,-83.7220,22.95,1111122 
COMPS,ioos:station:USF.COMPS:C12:1,2017-05-04T15:35:00Z,27.4980,-83.7220,22.91,1111122 
COMPS,ioos:station:USF.COMPS:C12:1,2017-05-04T16:05:00Z,27.4980,-83.7220,22.98,1111122 
COMPS,ioos:station:USF.COMPS:C12:1,2017-05-04T16:35:00Z,27.4980,-83.7220,23.05,1111122 
COMPS,ioos:station:USF.COMPS:C12:1,2017-05-04T17:05:00Z,27.4980,-83.7220,23.1,1111122 
COMPS,ioos:station:USF.COMPS:C12:1,2017-05-04T17:35:00Z,27.4980,-83.7220,23.1,1111122 
COMPS,ioos:station:USF.COMPS:C12:1,2017-05-04T18:05:00Z,27.4980,-83.7220,23.08,1111122 
COMPS,ioos:station:USF.COMPS:C12:1,2017-05-04T18:35:00Z,27.4980,-83.7220,23.02,1111122 
COMPS,ioos:station:USF.COMPS:C12:1,2017-05-04T19:05:00Z,27.4980,-83.7220,22.97,1111122 
COMPS,ioos:station:USF.COMPS:C12:1,2017-05-04T19:35:00Z,27.4980,-83.7220,23.0,1111122 
COMPS,ioos:station:USF.COMPS:C12:1,2017-05-04T20:05:00Z,27.4980,-83.7220,19.72,1111122 
COMPS,ioos:station:USF.COMPS:C12:1,2017-05-04T20:35:00Z,27.4980,-83.7220,19.31,1111122 
COMPS,ioos:station:USF.COMPS:C12:1,2017-05-04T21:05:00Z,27.4980,-83.7220,19.28,1111122 
COMPS,ioos:station:USF.COMPS:C12:1,2017-05-04T21:35:00Z,27.4980,-83.7220,19.55,1111122 
COMPS,ioos:station:USF.COMPS:C12:1,2017-05-04T22:05:00Z,27.4980,-83.7220,19.89,1111122 
COMPS,ioos:station:USF.COMPS:C12:1,2017-05-04T22:35:00Z,27.4980,-83.7220,20.84,1111122 
COMPS,ioos:station:USF.COMPS:C12:1,2017-05-04T23:05:00Z,27.4980,-83.7220,21.23,1111122 
COMPS,ioos:station:USF.COMPS:C12:1,2017-05-04T23:35:00Z,27.4980,-83.7220,21.41,1111122 
COMPS,ioos:station:USF.COMPS:C12:1,2017-05-05T00:05:00Z,27.4980,-83.7220,21.6,1111122 
COMPS,ioos:station:USF.COMPS:C12:1,2017-05-05T00:35:00Z,27.4980,-83.7220,22.08,1111122 
COMPS,ioos:station:USF.COMPS:C12:1,2017-05-05T01:05:00Z,27.4980,-83.7220,22.53,1111122 
COMPS,ioos:station:USF.COMPS:C12:1,2017-05-05T01:35:00Z,27.4980,-83.7220,22.58,1111122 
COMPS,ioos:station:USF.COMPS:C12:1,2017-05-05T02:05:00Z,27.4980,-83.7220,22.65,1111122 
COMPS,ioos:station:USF.COMPS:C12:1,2017-05-05T02:35:00Z,27.4980,-83.7220,22.9,1111122 
COMPS,ioos:station:USF.COMPS:C12:1,2017-05-05T03:05:00Z,27.4980,-83.7220,23.72,1111122 
COMPS,ioos:station:USF.COMPS:C12:1,2017-05-05T03:35:00Z,27.4980,-83.7220,23.68,1111122 
COMPS,ioos:station:USF.COMPS:C12:1,2017-05-05T04:05:00Z,27.4980,-83.7220,23.54,1111122 
COMPS,ioos:station:USF.COMPS:C12:1,2017-05-05T04:35:00Z,27.4980,-83.7220,23.5,1111122 
COMPS,ioos:station:USF.COMPS:C12:1,2017-05-05T05:05:00Z,27.4980,-83.7220,22.25,1111122 
COMPS,ioos:station:USF.COMPS:C12:1,2017-05-05T05:35:00Z,27.4980,-83.7220,22.77,1111122 
COMPS,ioos:station:USF.COMPS:C12:1,2017-05-05T06:05:00Z,27.4980,-83.7220,22.81,1111122 
COMPS,ioos:station:USF.COMPS:C12:1,2017-05-05T06:35:00Z,27.4980,-83.7220,20.97,1111122 
COMPS,ioos:station:USF.COMPS:C12:1,2017-05-05T07:05:00Z,27.4980,-83.7220,21.27,1111122 
COMPS,ioos:station:USF.COMPS:C12:1,2017-05-05T07:35:00Z,27.4980,-83.7220,21.33,1111122 
COMPS,ioos:station:USF.COMPS:C12:1,2017-05-05T08:05:00Z,27.4980,-83.7220,21.45,1111122 
COMPS,ioos:station:USF.COMPS:C12:1,2017-05-05T08:35:00Z,27.4980,-83.7220,21.31,1111122 
COMPS,ioos:station:USF.COMPS:C12:1,2017-05-05T09:05:00Z,27.4980,-83.7220,21.16,1111122 
COMPS,ioos:station:USF.COMPS:C12:1,2017-05-05T09:35:00Z,27.4980,-83.7220,21.15,1111122 
COMPS,ioos:station:USF.COMPS:C12:1,2017-05-05T10:05:00Z,27.4980,-83.7220,21.03,1111122 
COMPS,ioos:station:USF.COMPS:C12:1,2017-05-05T10:35:00Z,27.4980,-83.7220,20.71,1111122 
COMPS,ioos:station:USF.COMPS:C12:1,2017-05-05T11:05:00Z,27.4980,-83.7220,20.64,1111122 
COMPS,ioos:station:USF.COMPS:C12:1,2017-05-05T11:35:00Z,27.4980,-83.7220,20.45,1111122 
COMPS,ioos:station:USF.COMPS:C12:1,2017-05-05T12:05:00Z,27.4980,-83.7220,20.1,1111122 
COMPS,ioos:station:USF.COMPS:C12:1,2017-05-05T12:35:00Z,27.4980,-83.7220,20.04,1111122 
COMPS,ioos:station:USF.COMPS:C12:1,2017-05-05T13:05:00Z,27.4980,-83.7220,19.79,1111122 
COMPS,ioos:station:USF.COMPS:C12:1,2017-05-05T13:35:00Z,27.4980,-83.7220,19.74,1111122 
COMPS,ioos:station:USF.COMPS:C12:1,2017-05-05T14:05:00Z,27.4980,-83.7220,19.78,1111122 
COMPS,ioos:station:USF.COMPS:C12:1,2017-05-05T14:35:00Z,27.4980,-83.7220,19.67,1111122 
COMPS,ioos:station:USF.COMPS:C12:1,2017-05-05T15:05:00Z,27.4980,-83.7220,19.67,1111122 
COMPS,ioos:station:USF.COMPS:C12:1,2017-05-05T15:35:00Z,27.4980,-83.7220,19.59,1111122 
COMPS,ioos:station:USF.COMPS:C12:1,2017-05-05T16:05:00Z,27.4980,-83.7220,19.91,1111122 
COMPS,ioos:station:USF.COMPS:C12:1,2017-05-05T16:35:00Z,27.4980,-83.7220,20.03,1111122 
COMPS,ioos:station:USF.COMPS:C12:1,2017-05-05T17:05:00Z,27.4980,-83.7220,20.24,1111122 
COMPS,ioos:station:USF.COMPS:C12:1,2017-05-05T17:35:00Z,27.4980,-83.7220,20.47,1111122 
COMPS,ioos:station:USF.COMPS:C12:1,2017-05-05T18:05:00Z,27.4980,-83.7220,20.56,1111122 
COMPS,ioos:station:USF.COMPS:C12:1,2017-05-05T18:35:00Z,27.4980,-83.7220,20.71,1111122 
COMPS,ioos:station:USF.COMPS:C12:1,2017-05-05T19:05:00Z,27.4980,-83.7220,20.96,1111122 
COMPS,ioos:station:USF.COMPS:C12:1,2017-05-05T19:35:00Z,27.4980,-83.7220,20.96,1111122 
COMPS,ioos:station:USF.COMPS:C12:1,2017-05-05T20:05:00Z,27.4980,-83.7220,21.15,1111122 
COMPS,ioos:station:USF.COMPS:C12:1,2017-05-05T20:35:00Z,27.4980,-83.7220,21.33,1111122 
COMPS,ioos:station:USF.COMPS:C12:1,2017-05-05T21:05:00Z,27.4980,-83.7220,21.52,1111122 
COMPS,ioos:station:USF.COMPS:C12:1,2017-05-05T21:35:00Z,27.4980,-83.7220,21.82,1111122 
COMPS,ioos:station:USF.COMPS:C12:1,2017-05-05T22:05:00Z,27.4980,-83.7220,21.74,1111122 
COMPS,ioos:station:USF.COMPS:C12:1,2017-05-05T22:35:00Z,27.4980,-83.7220,22.05,1111122 
COMPS,ioos:station:USF.COMPS:C12:1,2017-05-05T23:05:00Z,27.4980,-83.7220,21.78,1111122 
COMPS,ioos:station:USF.COMPS:C12:1,2017-05-05T23:35:00Z,27.4980,-83.7220,21.75,1111122 
COMPS,ioos:station:USF.COMPS:C12:1,2017-05-06T00:05:00Z,27.4980,-83.7220,21.57,1111122 
COMPS,ioos:station:USF.COMPS:C12:1,2017-05-06T00:35:00Z,27.4980,-83.7220,21.67,1111122 
COMPS,ioos:station:USF.COMPS:C12:1,2017-05-06T01:05:00Z,27.4980,-83.7220,21.83,1111122 
COMPS,ioos:station:USF.COMPS:C12:1,2017-05-06T01:35:00Z,27.4980,-83.7220,21.92,1111122 
COMPS,ioos:station:USF.COMPS:C12:1,2017-05-06T02:05:00Z,27.4980,-83.7220,22.01,1111122 
COMPS,ioos:station:USF.COMPS:C12:1,2017-05-06T02:35:00Z,27.4980,-83.7220,21.87,1111122 
COMPS,ioos:station:USF.COMPS:C12:1,2017-05-06T03:05:00Z,27.4980,-83.7220,21.64,1111122 
COMPS,ioos:station:USF.COMPS:C12:1,2017-05-06T03:35:00Z,27.4980,-83.7220,20.84,1111122 
COMPS,ioos:station:USF.COMPS:C12:1,2017-05-06T04:05:00Z,27.4980,-83.7220,20.44,1111122 
COMPS,ioos:station:USF.COMPS:C12:1,2017-05-06T04:35:00Z,27.4980,-83.7220,20.41,1111122 
COMPS,ioos:station:USF.COMPS:C12:1,2017-05-06T05:05:00Z,27.4980,-83.7220,20.56,1111122 
COMPS,ioos:station:USF.COMPS:C12:1,2017-05-06T05:35:00Z,27.4980,-83.7220,20.8,1111122 
COMPS,ioos:station:USF.COMPS:C12:1,2017-05-06T06:05:00Z,27.4980,-83.7220,20.76,1111122 
COMPS,ioos:station:USF.COMPS:C12:1,2017-05-06T06:35:00Z,27.4980,-83.7220,20.44,1111122 
COMPS,ioos:station:USF.COMPS:C12:1,2017-05-06T07:05:00Z,27.4980,-83.7220,20.48,1111122 
COMPS,ioos:station:USF.COMPS:C12:1,2017-05-06T07:35:00Z,27.4980,-83.7220,20.48,1111122 
COMPS,ioos:station:USF.COMPS:C12:1,2017-05-06T08:05:00Z,27.4980,-83.7220,19.73,1111122 
COMPS,ioos:station:USF.COMPS:C12:1,2017-05-06T08:35:00Z,27.4980,-83.7220,20.2,1111122 
COMPS,ioos:station:USF.COMPS:C12:1,2017-05-06T09:05:00Z,27.4980,-83.7220,20.29,1111122 
COMPS,ioos:station:USF.COMPS:C12:1,2017-05-06T09:35:00Z,27.4980,-83.7220,20.12,1111122 
COMPS,ioos:station:USF.COMPS:C12:1,2017-05-06T10:05:00Z,27.4980,-83.7220,20.29,1111122 
COMPS,ioos:station:USF.COMPS:C12:1,2017-05-06T10:35:00Z,27.4980,-83.7220,20.18,1111122 
COMPS,ioos:station:USF.COMPS:C12:1,2017-05-06T11:05:00Z,27.4980,-83.7220,20.08,1111122 
COMPS,ioos:station:USF.COMPS:C12:1,2017-05-06T11:35:00Z,27.4980,-83.7220,20.09,1111122 
COMPS,ioos:station:USF.COMPS:C12:1,2017-05-06T12:05:00Z,27.4980,-83.7220,20.26,1111122 
COMPS,ioos:station:USF.COMPS:C12:1,2017-05-06T12:35:00Z,27.4980,-83.7220,20.15,1111122 
COMPS,ioos:station:USF.COMPS:C12:1,2017-05-06T13:05:00Z,27.4980,-83.7220,20.23,1111122 
COMPS,ioos:station:USF.COMPS:C12:1,2017-05-06T13:35:00Z,27.4980,-83.7220,20.28,1111122 
COMPS,ioos:station:USF.COMPS:C12:1,2017-05-06T14:05:00Z,27.4980,-83.7220,20.37,1111122 
COMPS,ioos:station:USF.COMPS:C12:1,2017-05-06T14:35:00Z,27.4980,-83.7220,20.41,1111122 
COMPS,ioos:station:USF.COMPS:C12:1,2017-05-06T15:05:00Z,27.4980,-83.7220,20.68,1111122 
COMPS,ioos:station:USF.COMPS:C12:1,2017-05-06T15:35:00Z,27.4980,-83.7220,20.73,1111122 